2021-022AN

Last updated on Thu Apr 22 2021 00:02:05 GMT+0000 (Coordinated Universal Time)

1 48084U 21022AN 21111.24642370 .00001130 00000-0 82370-4 0 9994 2 48084 97.5584 14.5317 0022112 143.7272 341.9375 15.05556866 2954

Satellite not in orbit

2021-022AN